Theta_e
306 306 304 304 304 306 306 306 306 306 306 305 304 305 307 309 309 313 307 308 304 297 300 304 304 299 298 296 291 295 293 292 285 283 280 279 277 283 283 285 284 282 280 275 276 270 276 290 292 286 290 289 293 293
305 304 303 304 305 305 306 306 306 306 302 303 303 304 306 308 309 311 310 310 308 303 302 305 306 305 304 301 298 295 295 293 293 285 279 279 278 282 281 280 287 282 285 281 283 283 289 291 292 293 292 292 293 293
304 303 304 305 305 305 305 305 304 303 303 303 304 305 306 307 310 311 309 305 303 297 300 301 301 307 309 307 305 296 292 298 294 292 285 282 279 282 280 282 282 288 290 283 286 289 290 291 293 294 294 294 295 295
304 304 305 304 304 304 304 303 302 303 303 304 304 305 307 307 308 309 306 304 299 294 288 296 306 304 308 309 308 304 301 298 295 291 285 283 280 287 280 284 283 288 290 287 285 290 290 293 294 294 295 296 296 297
304 304 304 304 304 303 302 302 302 303 304 304 304 306 308 307 308 308 305 304 304 299 290 291 301 303 305 308 305 304 302 298 294 288 286 285 283 285 285 286 284 291 289 285 284 291 291 292 294 296 296 296 296 296
304 303 303 303 302 302 302 302 302 303 303 304 304 305 306 307 306 302 298 304 306 301 294 288 296 298 301 303 303 302 302 297 295 291 287 288 292 288 286 286 291 293 294 293 292 293 293 293 295 296 295 295 296 292
303 303 303 302 302 302 302 302 302 303 304 304 304 305 305 306 306 298 294 301 303 300 292 289 288 295 297 298 296 297 298 296 295 292 287 287 289 290 286 281 293 295 296 296 296 295 292 293 294 296 297 292 290 288
303 303 303 302 302 301 301 301 302 303 304 305 304 305 305 305 305 302 303 303 303 296 292 285 284 288 296 290 290 296 291 294 294 292 290 288 290 287 286 291 294 296 297 296 296 295 293 294 295 288 288 288 288 288
301 302 302 302 302 302 302 301 302 303 305 304 304 304 304 301 300 301 303 302 302 298 287 285 283 282 294 291 289 290 292 289 292 288 288 290 286 286 288 289 291 293 293 294 293 294 293 289 287 288 289 289 287 285
300 300 301 301 302 302 302 301 301 304 303 303 302 297 289 298 302 302 298 293 292 291 293 286 289 287 294 287 287 287 287 288 287 285 292 286 286 290 286 287 288 290 293 294 290 287 287 287 288 287 288 288 286 286
301 301 301 301 302 302 302 302 303 303 303 298 293 291 297 300 297 290 287 286 291 288 290 289 288 288 292 288 287 285 286 285 285 284 286 284 284 284 286 287 288 289 289 289 289 289 289 288 286 285 285 286 286 284
300 300 300 301 301 302 302 302 302 299 296 296 296 296 293 290 288 286 285 286 287 284 287 288 288 291 288 289 287 286 285 285 282 285 285 281 283 287 288 289 289 289 288 288 288 287 288 288 288 286 284 283 283 283
299 299 300 300 300 301 301 300 300 300 299 295 291 287 289 285 286 286 284 285 285 285 286 286 286 286 288 289 286 286 284 283 285 283 282 283 287 287 288 289 287 288 288 288 287 288 287 285 285 284 283 283 281 283
299 299 299 299 299 299 299 300 300 298 297 289 287 286 285 283 283 283 284 285 284 285 285 285 285 285 285 286 285 284 284 284 281 278 276 283 285 285 284 284 285 285 284 285 284 284 283 283 282 281 280 279 278 280
299 298 298 298 299 299 298 298 298 296 291 286 286 281 281 283 284 284 285 285 285 286 285 285 285 286 284 283 283 282 279 277 275 273 282 284 285 285 285 287 286 287 282 282 282 282 277 277 278 280 280 280 281 275
299 298 296 298 298 298 297 295 293 292 287 286 284 282 283 284 283 285 285 285 287 285 286 286 284 278 278 282 279 279 277 273 278 283 285 285 285 286 286 287 286 287 285 284 284 284 282 278 276 282 280 278 275 274
298 294 297 298 298 296 296 290 287 284 282 284 283 285 285 285 284 285 285 285 288 285 284 283 277 276 282 277 278 281 275 281 285 285 285 286 285 285 286 285 283 284 284 283 283 283 283 282 278 279 280 283 282 282
292 292 297 298 295 292 288 286 283 283 282 283 283 283 284 285 285 285 285 285 284 284 282 278 282 274 272 272 274 279 284 282 283 283 284 287 285 284 284 283 283 283 283 283 281 282 281 279 280 280 281 281 280 280
293 294 296 296 293 285 284 283 284 282 282 283 283 283 283 283 284 284 285 284 279 279 279 276 273 273 274 278 276 280 284 284 282 283 282 283 283 283 283 282 283 282 282 281 281 280 280 280 280 279 279 279 278 279
294 295 294 294 292 282 282 280 283 281 281 283 283 282 282 282 283 284 284 281 280 276 276 274 275 276 277 279 279 279 280 280 280 277 277 279 280 281 280 280 279 280 279 280 280 279 278 278 278 277 276 276 276 276
290 290 291 289 284 283 282 280 283 283 283 282 282 282 280 282 282 282 283 283 278 274 276 277 274 277 280 280 280 279 281 281 279 277 277 278 279 279 278 278 277 277 275 274 272 275 275 274 274 273 270 270 271 272
288 291 284 285 280 279 279 283 283 283 282 282 281 282 279 278 279 281 282 281 278 277 279 279 282 283 281 279 279 280 280 280 280 279 278 276 275 275 275 275 274 272 272 270 272 269 268 271 270 269 267 268 269 270
289 285 282 279 275 274 275 284 277 282 279 279 280 277 277 278 280 282 278 281 281 282 282 282 282 282 280 280 279 278 278 277 275 275 275 275 275 275 273 271 269 266 266 268 269 269 267 264 266 264 265 266 266 266
287 281 280 279 279 270 272 270 277 274 271 273 271 270 274 277 279 276 275 277 281 281 280 281 281 279 279 278 275 274 276 277 274 273 273 273 272 272 272 270 268 266 266 266 265 262 263 260 260 263 262 262 262 263
272 271 277 274 278 268 263 263 270 272 266 267 271 269 274 273 269 273 270 276 277 277 278 280 280 279 277 276 275 273 273 275 273 271 271 270 268 268 267 268 267 266 265 260 259 258 258 258 257 258 260 259 261 262
272 270 275 270 265 271 265 264 263 266 267 269 270 272 270 271 270 270 274 275 276 276 275 274 276 275 274 275 273 271 271 271 273 269 268 268 266 262 260 258 258 260 263 256 254 254 257 258 257 257 257 259 260 262
268 266 274 280 279 277 271 269 273 271 270 272 272 271 274 272 268 272 275 275 275 275 275 275 277 276 272 271 270 269 268 268 269 268 268 267 266 265 259 254 256 260 262 259 253 250 253 256 256 257 258 259 260 260
273 272 271 271 273 276 275 273 273 274 275 278 276 273 272 270 269 271 272 275 274 273 272 271 271 270 268 267 266 265 266 267 267 266 265 263 262 257 256 255 256 261 255 251 250 252 252 256 258 259 259 259 257 254
274 276 275 271 271 273 275 275 276 278 279 278 274 271 268 268 267 268 270 271 272 270 268 267 266 266 266 265 262 261 259 256 256 254 252 251 251 255 255 251 251 251 250 251 255 260 260 260 259 256 252 253 254 253
271 274 269 266 268 269 274 273 272 275 276 274 273 270 268 267 267 269 269 268 266 263 261 260 259 260 256 254 253 256 254 251 252 253 251 250 254 256 250 249 250 251 249 246 249 250 254 250 252 249 249 249 248 247
276 276 272 267 267 270 271 276 278 277 276 270 270 268 265 263 263 265 263 261 260 258 258 254 253 249 251 251 250 250 252 252 250 252 253 251 252 250 249 249 248 246 244 244 244 244 245 245 244 244 245 246 247 246
275 273 271 267 267 266 266 265 268 267 272 273 267 262 257 257 255 260 260 258 255 254 251 248 251 253 252 251 249 249 253 251 251 250 250 251 251 251 249 249 245 244 244 244 244 244 244 244 244 243 243 244 245 245
259 258 260 260 264 265 264 259 257 260 267 266 259 257 257 258 257 259 260 256 255 253 252 251 251 249 250 251 251 250 250 249 250 255 256 259 257 257 250 245 244 244 245 244 243 243 244 245 244 244 243 243 243 243
Wind_Speed
26 25 23 22 21 18 15 13 11 10 9 11 12 10 10 14 11 3 2 2 4 4 2 3 2 6 4 3 7 6 6 4 4 5 4 4 3 5 2 4 7 8 7 4 4 2 9 6 4 8 9 2 6 8
25 23 22 21 18 15 14 13 11 10 11 14 13 10 10 9 5 6 5 1 1 7 4 1 3 2 1 6 8 0 5 5 6 6 1 4 2 2 2 3 2 3 8 6 10 9 4 7 5 4 2 3 5 7
23 21 21 18 16 15 13 12 11 13 11 14 13 10 8 7 13 5 4 1 5 5 4 4 3 5 6 3 3 7 3 5 3 2 5 3 3 5 5 7 2 4 4 3 2 5 8 10 8 6 5 7 3 4
21 21 20 17 15 14 13 13 13 14 12 12 14 13 10 9 9 8 5 2 5 5 7 4 4 4 7 5 2 3 8 7 7 4 4 4 3 4 4 3 4 5 5 4 5 10 6 9 8 9 5 4 5 4
21 19 18 17 15 15 13 13 13 14 13 13 13 11 11 14 16 12 5 3 3 6 5 2 3 5 7 5 9 8 9 7 3 3 3 3 3 5 1 2 3 6 8 6 8 10 5 7 4 2 6 8 6 7
20 18 17 16 16 14 14 14 14 13 13 13 11 9 7 6 4 5 6 5 7 3 7 3 3 5 7 8 11 8 4 4 3 4 3 1 1 4 4 4 10 4 5 5 7 1 5 4 5 3 4 6 6 8
19 18 16 17 15 14 15 14 13 14 12 13 13 11 11 12 8 6 5 4 8 2 6 4 4 5 4 4 4 4 4 3 3 2 1 2 1 4 3 4 5 7 7 6 5 4 4 4 4 4 6 8 13 12
18 17 16 16 14 12 15 13 13 11 12 12 14 16 17 20 13 6 4 9 6 7 5 5 3 4 6 3 3 3 3 3 4 2 1 2 2 2 4 5 8 7 8 5 4 4 1 2 6 8 10 13 15 12
17 15 14 12 11 14 15 12 10 11 10 8 8 7 6 8 4 2 10 9 3 6 5 3 5 4 3 2 1 3 2 2 2 1 0 3 1 4 3 9 9 8 5 7 3 4 7 11 12 13 14 13 15 11
20 16 14 12 10 12 11 10 8 8 7 7 8 6 4 3 8 7 7 6 7 5 4 4 1 1 2 1 2 2 2 1 1 3 1 2 2 4 9 7 8 9 7 3 3 6 10 13 12 13 13 9 8 5
21 18 15 13 11 10 9 8 6 6 9 5 4 2 3 7 4 5 4 5 3 3 3 1 2 2 2 3 2 1 1 1 2 3 2 0 2 4 8 9 9 11 14 15 15 16 14 14 13 9 6 5 3 2
23 22 20 18 14 11 10 8 8 6 2 3 5 4 3 5 4 7 2 1 3 3 2 1 0 2 1 2 4 1 2 1 3 1 1 1 3 5 5 8 10 12 15 17 16 14 12 10 6 5 3 3 1 3
21 21 20 20 17 16 15 14 15 11 3 3 6 6 4 3 5 4 5 1 2 1 0 1 2 1 2 3 3 2 2 2 1 1 1 3 2 5 6 6 9 8 8 11 11 7 5 3 2 4 3 3 1 2
17 19 22 20 16 13 12 9 9 6 6 6 4 4 2 2 2 2 2 2 1 1 2 2 2 2 1 3 1 2 1 1 2 0 1 2 3 4 3 4 6 6 4 4 4 4 4 3 3 2 1 1 2 4
16 18 18 20 15 13 9 9 8 4 5 4 4 3 3 2 3 2 2 3 1 1 1 2 3 2 2 3 1 3 2 1 2 4 2 1 4 3 4 5 5 4 3 3 2 3 3 4 4 4 4 3 3 4
6 8 12 19 14 12 7 6 5 3 4 4 4 3 2 2 2 1 2 2 0 1 1 3 2 3 0 2 2 3 4 5 3 3 2 3 3 4 5 5 3 1 2 3 3 2 2 2 2 4 5 4 3 3
12 5 17 16 11 8 11 5 5 7 4 4 3 3 2 3 3 2 1 1 1 1 2 2 3 3 2 2 1 1 3 3 3 2 2 4 5 5 4 4 3 1 0 1 1 2 3 4 3 4 7 7 7 7
5 6 16 16 7 5 4 5 4 4 5 3 2 2 2 2 2 2 2 2 2 1 2 3 3 3 4 4 3 3 2 0 1 2 1 1 2 3 2 2 2 2 4 5 5 6 5 7 7 6 7 8 8 6
5 10 17 17 6 5 4 5 4 4 3 1 1 2 2 2 2 1 2 2 1 1 4 3 4 2 3 3 2 1 2 2 3 1 3 4 4 5 5 5 5 6 7 6 8 5 5 6 5 7 8 8 8 9
12 16 20 14 8 4 5 3 2 4 2 0 2 2 2 2 2 2 2 3 2 2 3 2 3 3 3 2 2 2 1 2 3 3 2 4 4 7 7 5 4 4 5 7 6 7 7 7 7 8 8 9 9 10
8 8 12 8 5 6 5 3 4 2 2 3 0 2 1 2 2 2 2 1 4 1 1 1 1 2 1 2 2 2 4 2 2 3 3 4 3 4 4 5 5 5 6 5 4 7 8 7 7 7 7 7 7 8
4 12 4 5 6 5 5 3 2 1 3 1 2 1 2 2 1 1 2 3 1 1 1 2 1 1 4 6 7 7 5 7 7 7 8 6 3 3 6 7 6 6 6 5 5 4 5 6 7 7 7 8 9 8
4 4 4 6 7 6 3 3 4 2 1 1 1 2 1 1 1 2 1 1 1 2 2 2 5 8 10 9 10 11 9 8 7 6 5 5 6 6 6 6 5 4 4 5 6 5 5 7 7 7 7 8 9 9
2 5 5 4 5 1 3 4 2 3 3 2 1 0 1 2 1 2 1 1 2 1 2 4 5 6 6 9 8 7 6 4 6 6 5 4 5 6 6 5 4 4 5 5 5 5 5 5 7 7 7 8 8 9
8 6 4 4 3 6 6 6 5 3 1 2 2 2 2 2 2 1 2 1 2 3 3 3 5 5 6 5 6 5 7 4 4 6 6 5 4 3 3 4 4 4 4 4 6 6 6 5 4 5 8 7 10 12
5 3 2 0 3 2 2 1 1 3 2 2 3 0 1 2 2 2 2 3 2 3 4 3 4 5 6 6 5 4 4 4 2 5 5 5 5 4 3 2 3 3 4 1 2 4 7 6 7 9 9 9 10 8
4 3 2 1 1 1 2 2 1 1 2 3 2 2 2 2 2 2 1 4 3 3 5 6 4 6 6 6 5 4 3 3 4 6 6 5 5 4 3 2 3 3 5 4 2 2 5 7 8 7 8 8 5 5
3 2 0 3 1 2 2 1 2 2 2 2 2 2 1 2 2 3 3 3 4 5 6 7 7 7 7 5 4 3 4 5 7 6 5 3 2 1 2 2 3 7 4 3 3 5 4 5 7 7 7 5 3 3
1 2 2 2 2 2 3 3 3 2 3 1 2 2 3 3 2 3 4 3 4 4 5 5 5 4 5 5 5 5 4 3 4 4 2 3 4 4 2 2 3 4 3 4 8 8 8 5 5 3 4 3 4 3
3 0 2 1 2 0 1 1 2 1 3 3 3 4 3 3 3 3 3 4 4 4 3 2 2 2 2 3 2 4 3 3 2 4 4 3 5 3 3 3 4 4 3 3 4 6 8 5 5 5 5 5 4 4
2 2 2 1 2 2 2 2 2 1 3 3 3 4 3 3 2 3 4 3 3 2 3 3 4 2 4 3 2 2 3 3 2 2 3 3 3 3 4 4 3 2 2 3 3 3 3 3 3 4 5 5 6 4
3 3 2 2 3 4 5 4 3 3 4 2 3 3 3 4 2 2 2 2 4 4 2 2 2 2 3 2 2 2 3 3 4 3 4 3 3 4 4 3 2 1 3 3 3 3 3 3 3 3 3 5 5 6
3 3 3 3 5 6 3 4 5 4 4 3 3 2 1 3 3 3 1 1 3 4 3 4 4 3 4 4 3 2 3 3 6 7 6 5 4 5 3 2 1 1 2 3 3 3 3 3 3 3 4 4 5 5
Wind_Direction
120 120 124 134 134 133 132 129 127 125 112 92 74 72 116 157 169 124 155 124 126 99 17 28 49 130 122 110 134 186 67 333 39 71 120 204 143 219 134 184 179 169 152 202 106 61 280 166 59 161 218 251 190 183
119 125 127 128 126 124 123 122 121 115 93 87 74 73 107 139 164 58 71 309 181 82 143 50 76 51 45 162 128 17 160 161 171 90 94 106 145 137 133 241 62 235 188 182 182 214 230 232 218 253 182 214 223 191
121 123 118 116 120 119 116 109 106 107 89 81 71 58 84 117 156 131 119 359 58 88 25 53 360 331 31 20 163 119 304 153 129 118 145 149 147 128 164 237 174 248 158 206 80 261 232 231 261 231 216 226 219 226
115 113 115 116 114 109 103 104 101 96 83 74 71 67 69 85 96 84 85 340 73 101 108 282 331 24 331 354 94 90 125 74 96 76 104 136 143 182 206 198 162 202 144 190 263 281 278 263 233 243 228 206 209 195
109 110 111 109 106 102 105 99 91 86 83 67 66 71 77 76 90 92 93 35 44 118 150 238 319 3 347 36 65 68 101 107 118 82 103 204 138 115 81 74 262 189 194 166 228 237 201 248 284 205 201 218 195 149
107 107 105 105 100 103 101 92 88 82 69 67 58 62 69 80 114 65 45 8 15 39 96 98 289 10 350 31 53 49 44 75 88 129 194 225 296 104 146 203 256 212 231 217 254 284 217 276 298 249 207 145 123 106
107 105 104 102 103 107 99 89 84 79 67 59 70 73 65 66 63 71 133 282 342 8 81 59 353 342 341 26 39 20 21 58 87 100 82 138 99 98 138 205 260 246 250 260 236 158 277 214 265 164 123 100 100 98
102 105 106 106 108 111 92 84 81 74 69 61 73 77 77 88 108 41 3 358 339 89 65 109 279 20 359 24 32 349 27 31 24 104 79 104 61 78 242 288 318 324 313 306 284 222 315 73 86 85 103 107 84 66
84 94 97 101 105 100 92 84 82 81 68 46 73 69 54 35 49 296 326 320 30 91 109 80 130 222 2 52 40 24 27 57 310 108 216 109 119 223 358 326 318 312 300 297 18 47 63 73 77 75 81 73 77 82
66 71 79 86 89 86 91 89 86 74 39 61 42 44 31 334 323 318 4 28 19 356 39 85 82 106 28 7 32 60 360 94 232 248 71 119 242 64 14 360 346 334 333 48 76 78 88 83 84 82 76 69 91 137
60 67 74 82 92 94 94 99 56 5 36 39 53 80 239 322 46 32 49 62 12 46 22 77 143 126 333 104 136 79 129 359 223 254 194 327 308 17 3 30 28 42 54 58 70 71 74 87 91 92 97 151 156 142
57 57 60 65 74 90 83 46 21 53 61 124 126 94 45 37 47 77 48 10 56 194 1 106 50 53 52 98 100 298 131 83 243 191 70 262 55 38 33 47 53 65 71 73 69 74 73 76 98 123 130 196 111 47
58 57 54 55 56 60 62 58 62 93 126 57 49 56 52 327 71 141 144 228 145 178 340 66 61 70 23 43 67 95 150 220 61 168 179 49 64 35 28 53 55 44 65 85 97 112 131 122 36 36 45 35 18 333
58 53 47 39 43 51 54 50 32 33 53 54 47 62 37 81 56 81 60 76 79 104 85 80 67 65 359 57 65 138 73 73 213 149 14 49 77 73 53 50 81 59 50 86 79 57 57 47 20 359 356 321 335 337
61 48 38 20 24 31 48 57 56 42 69 66 29 81 63 97 54 52 61 92 3 117 94 80 61 68 38 88 41 95 68 57 137 193 104 104 130 127 85 65 74 57 15 6 6 24 358 354 6 347 349 329 313 297
43 48 15 360 6 22 35 51 37 69 60 75 54 89 73 82 88 68 39 73 337 63 51 47 85 64 23 133 105 183 148 199 179 155 131 155 149 145 169 182 217 339 310 319 329 355 351 324 295 311 316 311 310 263
56 42 335 350 2 16 27 66 41 47 78 56 41 28 66 67 76 80 83 59 17 63 103 111 104 177 109 65 103 87 166 155 124 122 149 174 176 191 189 221 277 296 72 317 337 11 7 359 5 15 0 341 333 320
51 314 348 358 12 31 36 38 76 71 61 35 65 24 39 28 75 56 69 22 76 95 105 185 129 102 157 148 246 213 193 212 92 126 141 139 118 130 144 125 102 56 31 29 29 26 24 25 27 7 350 343 330 328
34 12 2 4 27 79 60 22 50 78 48 58 70 38 53 54 19 23 76 16 85 134 102 47 77 165 222 218 173 174 159 182 183 131 74 64 74 77 67 55 51 49 50 47 41 36 24 22 17 3 354 347 337 334
7 13 356 8 23 70 62 11 60 86 69 84 49 42 73 64 314 337 37 31 37 64 42 74 205 225 175 240 201 182 172 142 116 83 57 45 42 73 58 60 51 44 56 51 38 30 13 10 10 2 353 338 332 331
19 347 358 15 32 50 85 0 61 74 116 76 50 52 53 21 30 7 346 350 46 54 359 274 271 281 79 57 35 71 60 91 91 133 145 107 63 72 68 50 48 51 53 29 18 21 17 4 349 343 335 326 325 315
342 354 25 13 50 26 67 1 62 339 61 104 61 88 96 89 89 12 313 26 91 282 6 341 9 115 69 51 44 37 49 71 66 70 54 70 62 50 49 39 42 45 46 27 15 22 351 346 341 337 327 321 319 314
8 30 31 25 59 41 296 339 61 19 97 198 65 84 123 108 38 2 11 334 68 49 3 44 61 82 96 89 75 54 43 62 67 61 61 71 77 76 73 64 49 47 27 16 353 355 345 334 334 329 320 317 317 315
7 57 42 36 37 58 351 15 357 49 33 50 91 60 149 130 91 73 220 231 86 36 34 84 99 98 87 73 62 50 32 51 71 54 29 65 78 66 68 76 71 57 30 351 344 332 330 321 319 321 318 316 317 319
61 336 26 30 18 42 29 3 358 31 292 273 103 292 213 68 94 176 250 36 34 23 19 59 83 83 98 101 96 67 30 24 79 85 43 50 66 55 53 49 50 57 19 3 350 334 323 316 314 314 318 316 322 325
66 309 56 129 302 49 207 31 255 225 190 275 236 99 45 108 133 182 67 13 41 22 11 23 85 89 64 52 79 52 17 348 57 90 71 63 68 89 74 37 345 320 7 35 308 308 320 317 316 315 315 319 321 334
39 325 309 274 315 223 335 297 245 151 231 228 192 163 180 207 139 70 80 15 49 25 27 16 42 79 97 87 64 31 11 23 68 99 106 93 83 83 120 122 307 281 325 328 318 258 284 306 306 305 305 311 310 335
203 152 99 268 298 218 254 240 253 263 313 15 97 61 59 37 74 28 22 35 56 64 59 50 50 66 77 71 44 35 52 78 84 83 82 56 63 54 52 346 310 315 316 302 280 286 269 279 290 296 304 307 312 330
11 324 61 344 324 16 38 4 351 6 336 328 90 86 83 58 8 347 7 11 37 63 70 73 52 57 69 63 49 37 38 65 81 50 28 297 334 308 329 328 315 314 312 316 311 312 304 297 310 314 319 316 308 335
298 63 76 10 86 284 272 187 265 279 53 70 92 93 78 56 8 346 19 39 59 68 47 48 4 68 105 89 46 6 3 37 112 142 176 235 236 269 308 306 311 307 316 330 322 321 334 2 349 7 7 6 5 1
290 11 19 80 193 260 263 276 307 11 100 79 41 79 98 134 27 21 43 31 62 63 69 41 34 24 88 67 107 77 331 290 291 278 251 264 262 275 283 287 282 297 329 348 348 339 335 353 9 0 7 4 353 1
15 33 357 334 303 313 8 36 27 17 359 96 73 78 36 57 38 326 342 56 42 45 359 119 100 279 226 235 242 233 212 278 298 283 300 294 266 267 278 288 316 358 7 1 352 349 8 6 346 356 347 342 345 352
15 32 36 25 345 349 345 61 23 7 29 56 21 105 101 121 151 245 343 69 147 174 206 223 233 237 227 213 209 244 253 268 287 291 289 294 298 299 296 299 336 18 11 356 348 352 352 350 342 337 339 344 342 346